| time (UTC) | temp C | wind direction | speed KPH | gust KPH | rain 1hr cm | rain 24hr cm | rain mn cm | humidity % | barometer mb |
| 20260505011600 | 22 | 138 | 4.8 | 11.3 | 0.00 | 0.00 | 0.00 | 48 | 1009.0 |
| 20260505010104 | 23 | 200 | 8.0 | 16.1 | 0.00 | 0.00 | 0.00 | 46 | 1008.8 |
| 20260505004557 | 23 | 130 | 8.0 | 14.5 | 0.00 | 0.00 | 0.00 | 45 | 1008.7 |
| 20260505003106 | 24 | 186 | 11.3 | 19.3 | 0.00 | 0.00 | 0.00 | 45 | 1008.8 |
| 20260505001530 | 25 | 197 | 8.0 | 25.7 | 0.00 | 0.00 | 0.00 | 43 | 1008.7 |
| 20260505000034 | 25 | 204 | 9.7 | 17.7 | 0.00 | 0.00 | 0.00 | 41 | 1008.7 |
| 20260504234513 | 25 | 178 | 8.0 | 22.5 | 0.00 | 0.00 | 0.00 | 41 | 1009.0 |
| 20260504233017 | 25 | 224 | 9.7 | 22.5 | 0.00 | 0.00 | 0.00 | 40 | 1009.1 |
| 20260504231512 | 26 | 169 | 8.0 | 22.5 | 0.00 | 0.00 | 0.00 | 39 | 1009.2 |
| 20260504230013 | 26 | 217 | 11.3 | 22.5 | 0.00 | 0.00 | 0.00 | 39 | 1009.4 |
| 20260504224517 | 26 | 213 | 11.3 | 22.5 | 0.00 | 0.00 | 0.00 | 39 | 1009.3 |
| 20260504223015 | 26 | 214 | 12.9 | 30.6 | 0.00 | 0.00 | 0.00 | 38 | 1009.4 |
| 20260504221510 | 26 | 176 | 11.3 | 24.1 | 0.00 | 0.00 | 0.00 | 38 | 1009.3 |
| 20260504220010 | 26 | 204 | 16.1 | 32.2 | 0.00 | 0.00 | 0.00 | 37 | 1009.4 |
| 20260504214558 | 27 | 265 | 11.3 | 24.1 | 0.00 | 0.00 | 0.00 | 37 | 1009.2 |
| 20260504213106 | 27 | 212 | 16.1 | 25.7 | 0.00 | 0.00 | 0.00 | 38 | 1009.3 |
| 20260504211651 | 27 | 235 | 9.7 | 24.1 | 0.00 | 0.00 | 0.00 | 38 | 1008.9 |
| 20260504210056 | 27 | 211 | 14.5 | 33.8 | 0.00 | 0.00 | 0.00 | 38 | 1009.5 |
| 20260504204556 | 27 | 174 | 12.9 | 33.8 | 0.00 | 0.00 | 0.00 | 39 | 1009.6 |
| 20260504203053 | 27 | 234 | 16.1 | 32.2 | 0.00 | 0.00 | 0.00 | 37 | 1009.7 |
| 20260504201555 | 27 | 114 | 12.9 | 35.4 | 0.00 | 0.00 | 0.00 | 38 | 1009.9 |
| 20260504200053 | 27 | 248 | 16.1 | 35.4 | 0.00 | 0.00 | 0.00 | 37 | 1010.1 |
| 20260504194544 | 27 | 156 | 12.9 | 30.6 | 0.00 | 0.00 | 0.00 | 36 | 1010.2 |
| 20260504193036 | 27 | 158 | 12.9 | 32.2 | 0.00 | 0.00 | 0.00 | 37 | 1010.4 |
| 20260504191535 | 27 | 193 | 11.3 | 25.7 | 0.00 | 0.00 | 0.00 | 38 | 1010.5 |
| 20260504190030 | 26 | 214 | 20.9 | 40.2 | 0.00 | 0.00 | 0.00 | 36 | 1010.8 |
| 20260504184542 | 26 | 168 | 12.9 | 32.2 | 0.00 | 0.00 | 0.00 | 36 | 1010.9 |
| 20260504183027 | 26 | 233 | 20.9 | 33.8 | 0.00 | 0.00 | 0.00 | 38 | 1011.1 |
| 20260504181523 | 26 | 229 | 16.1 | 32.2 | 0.00 | 0.00 | 0.00 | 38 | 1011.4 |
| 20260504180024 | 26 | 206 | 14.5 | 35.4 | 0.00 | 0.00 | 0.00 | 39 | 1011.6 |
| 20260504174509 | 26 | 204 | 16.1 | 33.8 | 0.00 | 0.00 | 0.00 | 39 | 1011.7 |
| 20260504173006 | 26 | 200 | 11.3 | 32.2 | 0.00 | 0.00 | 0.00 | 40 | 1011.8 |
| 20260504171504 | 25 | 250 | 12.9 | 38.6 | 0.00 | 0.00 | 0.00 | 40 | 1012.0 |
| 20260504081507 | 17 | 184 | 8.0 | 17.7 | 0.00 | 0.00 | 0.00 | 62 | 1013.1 |
| 20260504050001 | 18 | 194 | 3.2 | 12.9 | 0.00 | 0.00 | 0.00 | 57 | 1014.8 |
| 20260504044501 | 18 | 174 | 3.2 | 11.3 | 0.00 | 0.00 | 0.00 | 57 | 1014.8 |
| 20260504043048 | 18 | 201 | 1.6 | 9.7 | 0.00 | 0.00 | 0.00 | 57 | 1014.9 |
| 20260504041548 | 18 | 191 | 4.8 | 11.3 | 0.00 | 0.00 | 0.00 | 56 | 1014.9 |
| 20260504040100 | 18 | 134 | 1.6 | 12.9 | 0.00 | 0.00 | 0.00 | 56 | 1015.1 |
| 20260504034547 | 17 | 138 | 0.0 | 9.7 | 0.00 | 0.00 | 0.00 | 57 | 1015.0 |
| 20260504033049 | 17 | 175 | 0.0 | 8.0 | 0.00 | 0.00 | 0.00 | 59 | 1015.3 |
| 20260504031555 | 17 | 127 | 0.0 | 3.2 | 0.00 | 0.00 | 0.00 | 59 | 1015.4 |
| 20260504030045 | 17 | 128 | 0.0 | 1.6 | 0.00 | 0.00 | 0.00 | 59 | 1015.4 |
| 20260504024545 | 17 | 128 | 0.0 | 1.6 | 0.00 | 0.00 | 0.00 | 58 | 1015.4 |
| 20260504023030 | 17 | 128 | 0.0 | 0.0 | 0.00 | 0.00 | 0.00 | 57 | 1015.4 |
| 20260504021526 | 18 | 128 | 0.0 | 0.0 | 0.00 | 0.00 | 0.00 | 56 | 1015.3 |
| 20260504020016 | 18 | 128 | 0.0 | 3.2 | 0.00 | 0.00 | 0.00 | 54 | 1015.2 |
| 20260504014523 | 18 | 126 | 0.0 | 3.2 | 0.00 | 0.00 | 0.00 | 52 | 1015.0 |
| 20260504013013 | 19 | 166 | 0.0 | 8.0 | 0.00 | 0.00 | 0.00 | 50 | 1015.0 |